Content
SEND FEEDBACK

Daily
Averages
Monthly
Summary
Canada

MONTREAL TRUDEAU AIRPORT, QUEBEC


Home > North America > Canada > Quebec
Elevation: 118 feet     Latitude: 45 28N     Longitude: 73 45W

WEATHER
 
SELECT A DAY
Number of Records: 197,889;   Date Range: 1/1/95 - 7/10/14
 
SHARE

PRINT THIS DATA

[ ← Previous Day ]
WEATHER ALMANAC - APRIL 5, 2013
[ Next Day → ]
[ °C ]   °F
Weather ElementAverageHighLow
Temperature35.8 °F42.8 °F (1:00 pm)28.4 °F (11:00 pm)
Dewpoint26.2 °F33.8 °F (9:41 am)10.4 °F (11:00 pm)
Humidity70.1 %94 % (8:00 am)30 % (8:00 pm)
Barometer29.85 in30.02 in (11:00 pm)29.81 in (4:00 am)
Wind Speed11.7 mph20.7 mph (1:00 pm)
Wind Gust28.8 mph (2:00 pm)
Weather ElementAverage
Visibility12.1 mi
Wind DirectionWSW (259.5 °)

Weather ElementTotal
Precipitation---
Heating Degree Days29.4 (Base 65)
Averaged from 39 records on April 5, 2013
WEATHER CONDITIONS BREAKOUT
WIND DIRECTION BREAKOUT
WEATHER BY HOUR - APRIL 5, 2013
[ °C ]   °F
Local TimeTemperatureDewpointHumidityBarometerVisibilityWind DirectionWind SpeedGust SpeedPrecipitationEventsConditions
1:00 AM37.4 °F26.6 °F65 %29.86 in15.0 miSouth (180°)4.6 mphMostly Cloudy
2:00 AM36.0 °F28.0 °F64 %29.85 in15.0 miSSW (200°)4.6 mphPartly Cloudy
2:00 AM35.6 °F28.4 °F75 %29.85 in15.0 miSSW (200°)4.6 mphMostly Cloudy
3:00 AM35.6 °F26.6 °F70 %29.82 in15.0 miSSE (150°)4.6 mphScattered Clouds
4:00 AM33.8 °F26.6 °F75 %29.81 in15.0 miSouth (180°)4.6 mphOvercast
5:00 AM35.6 °F24.8 °F65 %29.81 in15.0 miSSW (210°)9.2 mphOvercast
5:26 AM35.6 °F23.0 °F60 %29.81 in10.0 miWest (260°)6.9 mphSnowLight Snow
6:00 AM33.8 °F30.2 °F87 %29.81 in4.0 miWSW (240°)10.4 mphSnowLight Snow
6:14 AM33.8 °F32.0 °F93 %29.81 in2.5 miWSW (240°)8.1 mphSnowLight Snow
6:28 AM33.8 °F32.0 °F93 %29.81 in2.0 miSW (230°)10.4 mphSnowLight Snow
6:41 AM33.8 °F32.0 °F93 %29.81 in2.0 miWSW (240°)10.4 mphSnowLight Snow
7:00 AM33.8 °F32.0 °F93 %29.81 in3.0 miWSW (240°)12.7 mphSnowLight Snow
7:30 AM33.8 °F32.0 °F93 %29.81 in3.0 miWSW (240°)9.2 mphSnowLight Snow
8:00 AM33.0 °F32.0 °F94 %29.81 in3.0 miWSW (250°)11.5 mphSnowLight Snow
8:00 AM33.8 °F32.0 °F93 %29.81 in3.0 miWSW (250°)10.4 mphSnowLight Snow
8:13 AM33.8 °F32.0 °F93 %29.81 in2.0 miWSW (250°)9.2 mphSnowLight Snow
8:26 AM33.8 °F32.0 °F93 %29.82 in3.0 miWSW (250°)8.1 mphSnowLight Snow
8:41 AM33.8 °F32.0 °F93 %29.82 in4.0 miWSW (240°)10.4 mphSnowLight Snow
9:00 AM33.8 °F32.0 °F93 %29.82 in6.0 miWSW (250°)9.2 mphLight Drizzle
9:41 AM35.6 °F33.8 °F93 %29.82 in7.0 miWest (260°)12.7 mphOvercast
9:56 AM37.4 °F33.8 °F87 %29.82 in10.0 miWest (260°)12.7 mphMostly Cloudy
10:00 AM37.4 °F33.8 °F87 %29.82 in10.0 miWest (260°)16.1 mphMostly Cloudy
11:00 AM37.4 °F32.0 °F81 %29.83 in12.0 miWest (260°)16.1 mphMostly Cloudy
11:26 AM39.2 °F33.8 °F81 %29.83 in12.0 miWest (270°)15.0 mph20.7 mphRainLight Rain Showers
12:00 PM39.2 °F33.8 °F81 %29.84 in15.0 miWest (280°)12.7 mphRainLight Rain Showers
12:15 PM41.0 °F32.0 °F70 %29.84 in15.0 miWest (270°)15.0 mphMostly Cloudy
1:00 PM42.8 °F28.4 °F57 %29.84 in15.0 miWest (280°)20.7 mphPartly Cloudy
2:00 PM41.0 °F24.0 °F39 %29.85 in15.0 miWNW (290°)20.7 mphPartly Cloudy
2:00 PM41.0 °F24.8 °F53 %29.85 in15.0 miWest (280°)19.6 mph28.8 mphPartly Cloudy
3:00 PM41.0 °F21.2 °F45 %29.86 in30.0 miNW (310°)16.1 mph26.5 mphPartly Cloudy
4:00 PM39.2 °F21.2 °F49 %29.86 in30.0 miNW (320°)17.3 mph25.3 mphPartly Cloudy
5:00 PM39.2 °F17.6 °F42 %29.88 in30.0 miWNW (290°)18.4 mph25.3 mphPartly Cloudy
6:00 PM37.4 °F14.0 °F38 %29.90 in30.0 miWNW (300°)16.1 mph26.5 mphPartly Cloudy
7:00 PM35.6 °F12.2 °F38 %29.93 in15.0 miNNW (330°)13.8 mph20.7 mphPartly Cloudy
8:00 PM33.0 °F13.0 °F30 %29.95 in15.0 miNW (320°)9.2 mphScattered Clouds
8:00 PM33.8 °F12.2 °F41 %29.95 in15.0 miNW (320°)8.1 mphPartly Cloudy
9:00 PM32.0 °F12.2 °F44 %29.98 in15.0 miNW (320°)17.3 mphPartly Cloudy
10:00 PM30.2 °F12.2 °F47 %30.01 in15.0 miWNW (300°)11.5 mph18.4 mphClear
11:00 PM28.4 °F10.4 °F47 %30.02 in15.0 miWNW (300°)8.1 mphPartly Cloudy
Hourly data recorded from CYUL, located miles away from Montreal Trudeau Airport, Quebec







STORIES FROM OUR PARTNERS